Flag for U.S.A. Weather past 2 weeks in Avalon (Santa Catalina Island), California, U.S.A.

Now
65 °F

Clear.


Feels Like: 65 °F
Forecast: 67 / 74 °F
Wind: 9 mph from Northwest

Location: Catalina Airport

Current Time: Dec 22, 2014 at 5:43:07 PM

Latest Report: Dec 22, 2014 at 4:51 PM


Visibility: 10 mi

Pressure: 29.96 "Hg

Humidity: 39%

Dew point: 39 °F

Location of Avalon (Santa Catalina Island)Location

Historic Weather in Avalon (Santa Catalina Island) — Graph

°F

Avalon (Santa Catalina Island) temperature yesterday

Maximum temperature yesterday: 63 °F (at 12:51 PM)
Minimum temperature yesterday: 52 °F (at 6:58 AM)
Average temperature yesterday: 57 °F

Past Weeks' High & Low Weather Summary

 TemperatureHumidityPressure
High70 °F (Dec 8, 12:51 PM)100% (Dec 16, 11:51 AM)30.24 "Hg (Dec 16, 11:51 AM)
Low49 °F (Dec 15, 3:51 AM)27% (Dec 9, 8:51 PM)29.83 "Hg (Dec 12, 1:51 AM)
Average56 °F77%30.06 "Hg
* Reported Dec 7 3:51 PM — Dec 22 3:51 PM, Avalon (Santa Catalina Island), Weather by CustomWeather, © 2014

Note: Actual official high and low records may vary slightly from our data, if they occured in-between our weather recording intervals... More about our weather records

Advertising

Avalon (Santa Catalina Island) weather history for previous 24 hours

 ConditionsComfort  
Time TempWeatherWind HumidityBarometerVisibility
3:51 PM
Dec 22
66 °FSunny.8 mph40%29.95 "Hg10 mi
2:51 PM67 °FSunny.9 mph47%29.95 "Hg10 mi
1:51 PM66 °FSunny.9 mph42%29.95 "Hg10 mi
12:51 PM66 °FSunny.9 mph45%29.98 "Hg10 mi
11:51 AM66 °FSunny.9 mph43%30.00 "Hg10 mi
10:51 AM66 °FSunny.8 mph43%30.03 "Hg10 mi
9:51 AM64 °FSunny.7 mph52%30.05 "Hg10 mi
8:51 AM62 °FSunny.6 mph56%30.04 "Hg10 mi
7:51 AM60 °FSunny.7 mph58%30.04 "Hg10 mi
6:51 AM58 °FClear.10 mph62%30.03 "Hg10 mi
5:51 AM59 °FClear.13 mph58%30.02 "Hg10 mi
4:51 AM59 °FClear.8 mph60%30.02 "Hg10 mi
3:51 AM60 °FClear.3 mph58%30.03 "Hg10 mi
2:51 AM59 °FClear.8 mph62%30.03 "Hg10 mi
1:51 AM61 °FClear.8 mph56%30.02 "Hg10 mi
12:51 AM60 °FClear.8 mph60%30.02 "Hg10 mi
11:51 PM
Dec 21
59 °FClear.8 mph64%30.04 "Hg10 mi
10:51 PM59 °FClear.10 mph67%30.06 "Hg10 mi
9:51 PM58 °FClear.7 mph72%30.06 "Hg10 mi
8:51 PM59 °FClear.10 mph69%30.05 "Hg10 mi
7:51 PM58 °FClear.13 mph78%30.06 "Hg10 mi
6:51 PM57 °FClear.9 mph78%30.06 "Hg10 mi
5:51 PM59 °FClear.9 mph72%30.05 "Hg10 mi
Weather by CustomWeather, © 2014

See weather overviewHow to use our weather pages